owner,sensor,date,latitude,longitude,vertical_datum,sea_water_practical_salinity,qcFlag 
DISL,ioos:station:DISL:CATA:1,2013-10-01T00:00:00Z,30.3085,-88.1395,2.227,15.83,1111122 
DISL,ioos:station:DISL:CATA:1,2013-10-01T00:30:00Z,30.3085,-88.1395,2.243,16.5,1111122 
DISL,ioos:station:DISL:CATA:1,2013-10-01T01:00:00Z,30.3085,-88.1395,2.254,15.27,1111122 
DISL,ioos:station:DISL:CATA:1,2013-10-01T01:30:00Z,30.3085,-88.1395,2.262,16.81,1111122 
DISL,ioos:station:DISL:CATA:1,2013-10-01T02:00:00Z,30.3085,-88.1395,2.273,17.11,1111122 
DISL,ioos:station:DISL:CATA:1,2013-10-01T02:30:00Z,30.3085,-88.1395,2.296,17.17,1111122 
DISL,ioos:station:DISL:CATA:1,2013-10-01T03:00:00Z,30.3085,-88.1395,2.315,17.4,1111122 
DISL,ioos:station:DISL:CATA:1,2013-10-01T03:30:00Z,30.3085,-88.1395,2.326,16.17,1111122 
DISL,ioos:station:DISL:CATA:1,2013-10-01T04:00:00Z,30.3085,-88.1395,2.348,16.46,1111122 
DISL,ioos:station:DISL:CATA:1,2013-10-01T04:30:00Z,30.3085,-88.1395,2.375,14.77,1111122 
DISL,ioos:station:DISL:CATA:1,2013-10-01T05:00:00Z,30.3085,-88.1395,2.381,15.94,1111122 
DISL,ioos:station:DISL:CATA:1,2013-10-01T05:30:00Z,30.3085,-88.1395,2.39,13.13,1111122 
DISL,ioos:station:DISL:CATA:1,2013-10-01T06:00:00Z,30.3085,-88.1395,2.392,15.85,1111122 
DISL,ioos:station:DISL:CATA:1,2013-10-01T06:30:00Z,30.3085,-88.1395,2.405,15.95,1111122 
DISL,ioos:station:DISL:CATA:1,2013-10-01T07:00:00Z,30.3085,-88.1395,2.407,15.81,1111122 
DISL,ioos:station:DISL:CATA:1,2013-10-01T07:30:00Z,30.3085,-88.1395,2.41,15.19,1111122 
DISL,ioos:station:DISL:CATA:1,2013-10-01T08:00:00Z,30.3085,-88.1395,2.417,15.86,1111122 
DISL,ioos:station:DISL:CATA:1,2013-10-01T08:30:00Z,30.3085,-88.1395,2.418,16.51,1111122 
DISL,ioos:station:DISL:CATA:1,2013-10-01T09:00:00Z,30.3085,-88.1395,2.425,16.41,1111122 
DISL,ioos:station:DISL:CATA:1,2013-10-01T09:30:00Z,30.3085,-88.1395,2.433,15.99,1111122 
DISL,ioos:station:DISL:CATA:1,2013-10-01T10:00:00Z,30.3085,-88.1395,2.431,15.54,1111122 
DISL,ioos:station:DISL:CATA:1,2013-10-01T10:30:00Z,30.3085,-88.1395,2.434,15.36,1111122 
DISL,ioos:station:DISL:CATA:1,2013-10-01T11:00:00Z,30.3085,-88.1395,2.439,15.02,1111122 
DISL,ioos:station:DISL:CATA:1,2013-10-01T11:30:00Z,30.3085,-88.1395,2.448,13.02,1111122 
DISL,ioos:station:DISL:CATA:1,2013-10-01T12:00:00Z,30.3085,-88.1395,2.45,12.56,1111122 
DISL,ioos:station:DISL:CATA:1,2013-10-01T12:30:00Z,30.3085,-88.1395,2.452,12.41,1111122 
DISL,ioos:station:DISL:CATA:1,2013-10-01T13:00:00Z,30.3085,-88.1395,2.462,12.23,1111122 
DISL,ioos:station:DISL:CATA:1,2013-10-01T13:30:00Z,30.3085,-88.1395,2.456,12.64,1111122 
DISL,ioos:station:DISL:CATA:1,2013-10-01T14:00:00Z,30.3085,-88.1395,2.453,12.45,1111122 
DISL,ioos:station:DISL:CATA:1,2013-10-01T14:30:00Z,30.3085,-88.1395,2.433,12.11,1111122 
DISL,ioos:station:DISL:CATA:1,2013-10-01T15:00:00Z,30.3085,-88.1395,2.418,12.53,1111122 
DISL,ioos:station:DISL:CATA:1,2013-10-01T15:30:00Z,30.3085,-88.1395,2.396,11.95,1111122 
DISL,ioos:station:DISL:CATA:1,2013-10-01T16:00:00Z,30.3085,-88.1395,2.392,11.91,1111122 
DISL,ioos:station:DISL:CATA:1,2013-10-01T16:30:00Z,30.3085,-88.1395,2.375,11.94,1111122 
DISL,ioos:station:DISL:CATA:1,2013-10-01T17:00:00Z,30.3085,-88.1395,2.379,11.62,1111122 
DISL,ioos:station:DISL:CATA:1,2013-10-01T17:30:00Z,30.3085,-88.1395,2.374,11.3,1111122 
DISL,ioos:station:DISL:CATA:1,2013-10-01T18:00:00Z,30.3085,-88.1395,2.368,11.31,1111122 
DISL,ioos:station:DISL:CATA:1,2013-10-01T18:30:00Z,30.3085,-88.1395,2.357,11.98,1111122 
DISL,ioos:station:DISL:CATA:1,2013-10-01T19:00:00Z,30.3085,-88.1395,2.336,12.85,1111122 
DISL,ioos:station:DISL:CATA:1,2013-10-01T19:30:00Z,30.3085,-88.1395,2.321,12.79,1111122 
DISL,ioos:station:DISL:CATA:1,2013-10-01T20:00:00Z,30.3085,-88.1395,2.307,12.66,1111122 
DISL,ioos:station:DISL:CATA:1,2013-10-01T20:30:00Z,30.3085,-88.1395,2.298,12.43,1111122 
DISL,ioos:station:DISL:CATA:1,2013-10-01T21:00:00Z,30.3085,-88.1395,2.273,13.0,1111122 
DISL,ioos:station:DISL:CATA:1,2013-10-01T21:30:00Z,30.3085,-88.1395,2.283,12.54,1111122 
DISL,ioos:station:DISL:CATA:1,2013-10-01T22:00:00Z,30.3085,-88.1395,2.296,13.03,1111122 
DISL,ioos:station:DISL:CATA:1,2013-10-01T22:30:00Z,30.3085,-88.1395,2.304,13.06,1111122 
DISL,ioos:station:DISL:CATA:1,2013-10-01T23:00:00Z,30.3085,-88.1395,2.311,13.08,1111122 
DISL,ioos:station:DISL:CATA:1,2013-10-01T23:30:00Z,30.3085,-88.1395,2.327,13.14,1111122 
DISL,ioos:station:DISL:CATA:1,2013-10-02T00:00:00Z,30.3085,-88.1395,2.347,14.57,1111122 
DISL,ioos:station:DISL:CATA:1,2013-10-02T00:30:00Z,30.3085,-88.1395,2.35,14.68,1111122 
DISL,ioos:station:DISL:CATA:1,2013-10-02T01:00:00Z,30.3085,-88.1395,2.358,15.95,1111122 
DISL,ioos:station:DISL:CATA:1,2013-10-02T01:30:00Z,30.3085,-88.1395,2.353,16.68,1111122 
DISL,ioos:station:DISL:CATA:1,2013-10-02T02:00:00Z,30.3085,-88.1395,2.358,17.68,1111122 
DISL,ioos:station:DISL:CATA:1,2013-10-02T02:30:00Z,30.3085,-88.1395,2.348,19.16,1111122 
DISL,ioos:station:DISL:CATA:1,2013-10-02T03:00:00Z,30.3085,-88.1395,2.346,19.96,1111122 
DISL,ioos:station:DISL:CATA:1,2013-10-02T03:30:00Z,30.3085,-88.1395,2.358,18.57,1111122 
DISL,ioos:station:DISL:CATA:1,2013-10-02T04:00:00Z,30.3085,-88.1395,2.369,17.39,1111122 
DISL,ioos:station:DISL:CATA:1,2013-10-02T04:30:00Z,30.3085,-88.1395,2.369,16.96,1111122 
DISL,ioos:station:DISL:CATA:1,2013-10-02T05:00:00Z,30.3085,-88.1395,2.362,18.3,1111122 
DISL,ioos:station:DISL:CATA:1,2013-10-02T05:30:00Z,30.3085,-88.1395,2.368,16.95,1111122 
DISL,ioos:station:DISL:CATA:1,2013-10-02T06:00:00Z,30.3085,-88.1395,2.379,17.34,1111122 
DISL,ioos:station:DISL:CATA:1,2013-10-02T06:30:00Z,30.3085,-88.1395,2.372,16.37,1111122 
DISL,ioos:station:DISL:CATA:1,2013-10-02T07:00:00Z,30.3085,-88.1395,2.354,16.28,1111122 
DISL,ioos:station:DISL:CATA:1,2013-10-02T07:30:00Z,30.3085,-88.1395,2.354,16.0,1111122 
DISL,ioos:station:DISL:CATA:1,2013-10-02T08:00:00Z,30.3085,-88.1395,2.358,16.33,1111122 
DISL,ioos:station:DISL:CATA:1,2013-10-02T08:30:00Z,30.3085,-88.1395,2.348,15.54,1111122 
DISL,ioos:station:DISL:CATA:1,2013-10-02T09:00:00Z,30.3085,-88.1395,2.34,14.63,1111122 
DISL,ioos:station:DISL:CATA:1,2013-10-02T09:30:00Z,30.3085,-88.1395,2.335,14.52,1111122 
DISL,ioos:station:DISL:CATA:1,2013-10-02T10:00:00Z,30.3085,-88.1395,2.32,14.71,1111122 
DISL,ioos:station:DISL:CATA:1,2013-10-02T10:30:00Z,30.3085,-88.1395,2.324,14.45,1111122 
DISL,ioos:station:DISL:CATA:1,2013-10-02T11:00:00Z,30.3085,-88.1395,2.311,14.56,1111122 
DISL,ioos:station:DISL:CATA:1,2013-10-02T11:30:00Z,30.3085,-88.1395,2.317,14.79,1111122 
DISL,ioos:station:DISL:CATA:1,2013-10-02T12:00:00Z,30.3085,-88.1395,2.347,14.77,1111122 
DISL,ioos:station:DISL:CATA:1,2013-10-02T12:30:00Z,30.3085,-88.1395,2.403,15.62,1111122 
DISL,ioos:station:DISL:CATA:1,2013-10-02T13:00:00Z,30.3085,-88.1395,2.422,15.83,1111122 
DISL,ioos:station:DISL:CATA:1,2013-10-02T13:30:00Z,30.3085,-88.1395,2.429,16.74,1111122 
DISL,ioos:station:DISL:CATA:1,2013-10-02T14:00:00Z,30.3085,-88.1395,2.424,16.75,1111122 
DISL,ioos:station:DISL:CATA:1,2013-10-02T14:30:00Z,30.3085,-88.1395,2.452,17.02,1111122 
DISL,ioos:station:DISL:CATA:1,2013-10-02T15:00:00Z,30.3085,-88.1395,2.43,16.3,1111122 
DISL,ioos:station:DISL:CATA:1,2013-10-02T15:30:00Z,30.3085,-88.1395,2.446,16.92,1111122 
DISL,ioos:station:DISL:CATA:1,2013-10-02T16:00:00Z,30.3085,-88.1395,2.443,18.78,1111122 
DISL,ioos:station:DISL:CATA:1,2013-10-02T16:30:00Z,30.3085,-88.1395,2.439,18.74,1111122 
DISL,ioos:station:DISL:CATA:1,2013-10-02T17:00:00Z,30.3085,-88.1395,2.415,18.63,1111122 
DISL,ioos:station:DISL:CATA:1,2013-10-02T17:30:00Z,30.3085,-88.1395,2.413,18.49,1111122 
DISL,ioos:station:DISL:CATA:1,2013-10-02T18:00:00Z,30.3085,-88.1395,2.406,17.78,1111122 
DISL,ioos:station:DISL:CATA:1,2013-10-02T18:30:00Z,30.3085,-88.1395,2.392,17.2,1111122 
DISL,ioos:station:DISL:CATA:1,2013-10-02T19:00:00Z,30.3085,-88.1395,2.365,17.12,1111122 
DISL,ioos:station:DISL:CATA:1,2013-10-02T19:30:00Z,30.3085,-88.1395,2.342,16.14,1111122 
DISL,ioos:station:DISL:CATA:1,2013-10-02T20:00:00Z,30.3085,-88.1395,2.316,15.69,1111122 
DISL,ioos:station:DISL:CATA:1,2013-10-02T20:30:00Z,30.3085,-88.1395,2.308,15.5,1111122 
DISL,ioos:station:DISL:CATA:1,2013-10-02T21:00:00Z,30.3085,-88.1395,2.311,14.99,1111122 
DISL,ioos:station:DISL:CATA:1,2013-10-02T21:30:00Z,30.3085,-88.1395,2.306,14.6,1111122 
DISL,ioos:station:DISL:CATA:1,2013-10-02T22:00:00Z,30.3085,-88.1395,2.321,13.55,1111122 
DISL,ioos:station:DISL:CATA:1,2013-10-02T22:30:00Z,30.3085,-88.1395,2.338,12.99,1111122 
DISL,ioos:station:DISL:CATA:1,2013-10-02T23:00:00Z,30.3085,-88.1395,2.323,12.18,1111122 
DISL,ioos:station:DISL:CATA:1,2013-10-02T23:30:00Z,30.3085,-88.1395,2.33,12.52,1111122 
DISL,ioos:station:DISL:CATA:1,2013-10-03T00:00:00Z,30.3085,-88.1395,2.35,12.99,1111122 
DISL,ioos:station:DISL:CATA:1,2013-10-03T00:30:00Z,30.3085,-88.1395,2.385,13.73,1111122 
DISL,ioos:station:DISL:CATA:1,2013-10-03T01:00:00Z,30.3085,-88.1395,2.422,14.26,1111122 
DISL,ioos:station:DISL:CATA:1,2013-10-03T01:30:00Z,30.3085,-88.1395,2.436,14.36,1111122 
DISL,ioos:station:DISL:CATA:1,2013-10-03T02:00:00Z,30.3085,-88.1395,2.452,14.23,1111122 
DISL,ioos:station:DISL:CATA:1,2013-10-03T02:30:00Z,30.3085,-88.1395,2.47,14.28,1111122 
DISL,ioos:station:DISL:CATA:1,2013-10-03T03:00:00Z,30.3085,-88.1395,2.483,15.44,1111122 
DISL,ioos:station:DISL:CATA:1,2013-10-03T03:30:00Z,30.3085,-88.1395,2.494,14.68,1111122 
DISL,ioos:station:DISL:CATA:1,2013-10-03T04:00:00Z,30.3085,-88.1395,2.495,16.1,1111122 
DISL,ioos:station:DISL:CATA:1,2013-10-03T04:30:00Z,30.3085,-88.1395,2.501,14.75,1111122 
DISL,ioos:station:DISL:CATA:1,2013-10-03T05:00:00Z,30.3085,-88.1395,2.489,14.97,1111122 
DISL,ioos:station:DISL:CATA:1,2013-10-03T05:30:00Z,30.3085,-88.1395,2.49,16.18,1111122 
DISL,ioos:station:DISL:CATA:1,2013-10-03T06:00:00Z,30.3085,-88.1395,2.5,16.31,1111122 
DISL,ioos:station:DISL:CATA:1,2013-10-03T06:30:00Z,30.3085,-88.1395,2.485,14.7,1111122 
DISL,ioos:station:DISL:CATA:1,2013-10-03T07:00:00Z,30.3085,-88.1395,2.501,15.46,1111122 
DISL,ioos:station:DISL:CATA:1,2013-10-03T07:30:00Z,30.3085,-88.1395,2.477,15.33,1111122 
DISL,ioos:station:DISL:CATA:1,2013-10-03T08:00:00Z,30.3085,-88.1395,2.461,16.34,1111122 
DISL,ioos:station:DISL:CATA:1,2013-10-03T08:30:00Z,30.3085,-88.1395,2.428,16.41,1111122 
DISL,ioos:station:DISL:CATA:1,2013-10-03T09:00:00Z,30.3085,-88.1395,2.409,16.34,1111122 
DISL,ioos:station:DISL:CATA:1,2013-10-03T09:30:00Z,30.3085,-88.1395,2.404,16.17,1111122 
DISL,ioos:station:DISL:CATA:1,2013-10-03T10:00:00Z,30.3085,-88.1395,2.386,15.94,1111122 
DISL,ioos:station:DISL:CATA:1,2013-10-03T10:30:00Z,30.3085,-88.1395,2.378,15.99,1111122 
DISL,ioos:station:DISL:CATA:1,2013-10-03T11:00:00Z,30.3085,-88.1395,2.381,16.12,1111122 
DISL,ioos:station:DISL:CATA:1,2013-10-03T11:30:00Z,30.3085,-88.1395,2.385,17.06,1111122 
DISL,ioos:station:DISL:CATA:1,2013-10-03T12:00:00Z,30.3085,-88.1395,2.414,15.76,1111122 
DISL,ioos:station:DISL:CATA:1,2013-10-03T12:30:00Z,30.3085,-88.1395,2.434,15.87,1111122 
DISL,ioos:station:DISL:CATA:1,2013-10-03T13:00:00Z,30.3085,-88.1395,2.45,14.66,1111122 
DISL,ioos:station:DISL:CATA:1,2013-10-03T13:30:00Z,30.3085,-88.1395,2.462,15.7,1111122 
DISL,ioos:station:DISL:CATA:1,2013-10-03T14:00:00Z,30.3085,-88.1395,2.466,15.9,1111122 
DISL,ioos:station:DISL:CATA:1,2013-10-03T14:30:00Z,30.3085,-88.1395,2.461,15.78,1111122 
DISL,ioos:station:DISL:CATA:1,2013-10-03T15:00:00Z,30.3085,-88.1395,2.465,15.33,1111122 
DISL,ioos:station:DISL:CATA:1,2013-10-03T15:30:00Z,30.3085,-88.1395,2.471,15.49,1111122 
DISL,ioos:station:DISL:CATA:1,2013-10-03T16:00:00Z,30.3085,-88.1395,2.481,15.56,1111122 
DISL,ioos:station:DISL:CATA:1,2013-10-03T16:30:00Z,30.3085,-88.1395,2.488,15.65,1111122 
DISL,ioos:station:DISL:CATA:1,2013-10-03T17:00:00Z,30.3085,-88.1395,2.507,15.4,1111122 
DISL,ioos:station:DISL:CATA:1,2013-10-03T17:30:00Z,30.3085,-88.1395,2.509,14.67,1111122 
DISL,ioos:station:DISL:CATA:1,2013-10-03T18:00:00Z,30.3085,-88.1395,2.504,14.77,1111122 
DISL,ioos:station:DISL:CATA:1,2013-10-03T18:30:00Z,30.3085,-88.1395,2.491,15.85,1111122 
DISL,ioos:station:DISL:CATA:1,2013-10-03T19:00:00Z,30.3085,-88.1395,2.486,15.35,1111122 
DISL,ioos:station:DISL:CATA:1,2013-10-03T19:30:00Z,30.3085,-88.1395,2.464,15.56,1111122 
DISL,ioos:station:DISL:CATA:1,2013-10-03T20:00:00Z,30.3085,-88.1395,2.464,13.67,1111122 
DISL,ioos:station:DISL:CATA:1,2013-10-03T20:30:00Z,30.3085,-88.1395,2.464,12.6,1111122 
DISL,ioos:station:DISL:CATA:1,2013-10-03T21:00:00Z,30.3085,-88.1395,2.423,12.07,1111122 
DISL,ioos:station:DISL:CATA:1,2013-10-03T21:30:00Z,30.3085,-88.1395,2.44,12.33,1111122 
DISL,ioos:station:DISL:CATA:1,2013-10-03T22:00:00Z,30.3085,-88.1395,2.469,12.62,1111122 
DISL,ioos:station:DISL:CATA:1,2013-10-03T22:30:00Z,30.3085,-88.1395,2.472,13.78,1111122 
DISL,ioos:station:DISL:CATA:1,2013-10-03T23:00:00Z,30.3085,-88.1395,2.437,16.56,1111122 
DISL,ioos:station:DISL:CATA:1,2013-10-03T23:30:00Z,30.3085,-88.1395,2.433,16.65,1111122 
DISL,ioos:station:DISL:CATA:1,2013-10-04T00:00:00Z,30.3085,-88.1395,2.464,16.32,1111122 
DISL,ioos:station:DISL:CATA:1,2013-10-04T00:30:00Z,30.3085,-88.1395,2.507,16.92,1111122 
DISL,ioos:station:DISL:CATA:1,2013-10-04T01:00:00Z,30.3085,-88.1395,2.492,18.09,1111122 
DISL,ioos:station:DISL:CATA:1,2013-10-04T01:30:00Z,30.3085,-88.1395,2.514,18.27,1111122 
DISL,ioos:station:DISL:CATA:1,2013-10-04T02:00:00Z,30.3085,-88.1395,2.53,18.67,1111122 
DISL,ioos:station:DISL:CATA:1,2013-10-04T02:30:00Z,30.3085,-88.1395,2.569,19.39,1111122 
DISL,ioos:station:DISL:CATA:1,2013-10-04T03:00:00Z,30.3085,-88.1395,2.579,20.11,1111122 
DISL,ioos:station:DISL:CATA:1,2013-10-04T03:30:00Z,30.3085,-88.1395,2.577,20.38,1111122 
DISL,ioos:station:DISL:CATA:1,2013-10-04T04:00:00Z,30.3085,-88.1395,2.559,20.7,1111122 
DISL,ioos:station:DISL:CATA:1,2013-10-04T04:30:00Z,30.3085,-88.1395,2.544,20.38,1111122 
DISL,ioos:station:DISL:CATA:1,2013-10-04T05:00:00Z,30.3085,-88.1395,2.52,21.23,1111122 
DISL,ioos:station:DISL:CATA:1,2013-10-04T05:30:00Z,30.3085,-88.1395,2.503,21.94,1111122 
DISL,ioos:station:DISL:CATA:1,2013-10-04T06:00:00Z,30.3085,-88.1395,2.494,21.53,1111122 
DISL,ioos:station:DISL:CATA:1,2013-10-04T06:30:00Z,30.3085,-88.1395,2.482,21.22,1111122 
DISL,ioos:station:DISL:CATA:1,2013-10-04T07:00:00Z,30.3085,-88.1395,2.472,20.48,1111122 
DISL,ioos:station:DISL:CATA:1,2013-10-04T07:30:00Z,30.3085,-88.1395,2.443,20.48,1111122 
DISL,ioos:station:DISL:CATA:1,2013-10-04T08:00:00Z,30.3085,-88.1395,2.398,20.59,1111122 
DISL,ioos:station:DISL:CATA:1,2013-10-04T08:30:00Z,30.3085,-88.1395,2.377,19.7,1111122 
DISL,ioos:station:DISL:CATA:1,2013-10-04T09:00:00Z,30.3085,-88.1395,2.36,19.32,1111122 
DISL,ioos:station:DISL:CATA:1,2013-10-04T09:30:00Z,30.3085,-88.1395,2.322,19.21,1111122 
DISL,ioos:station:DISL:CATA:1,2013-10-04T10:00:00Z,30.3085,-88.1395,2.296,18.94,1111122 
DISL,ioos:station:DISL:CATA:1,2013-10-04T10:30:00Z,30.3085,-88.1395,2.282,19.07,1111122 
DISL,ioos:station:DISL:CATA:1,2013-10-04T11:00:00Z,30.3085,-88.1395,2.283,19.13,1111122 
DISL,ioos:station:DISL:CATA:1,2013-10-04T11:30:00Z,30.3085,-88.1395,2.285,19.02,1111122 
DISL,ioos:station:DISL:CATA:1,2013-10-04T12:00:00Z,30.3085,-88.1395,2.297,19.2,1111122 
DISL,ioos:station:DISL:CATA:1,2013-10-04T12:30:00Z,30.3085,-88.1395,2.332,19.39,1111122 
DISL,ioos:station:DISL:CATA:1,2013-10-04T13:00:00Z,30.3085,-88.1395,2.36,19.74,1111122 
DISL,ioos:station:DISL:CATA:1,2013-10-04T13:30:00Z,30.3085,-88.1395,2.381,20.4,1111122 
DISL,ioos:station:DISL:CATA:1,2013-10-04T14:00:00Z,30.3085,-88.1395,2.4,20.77,1111122 
DISL,ioos:station:DISL:CATA:1,2013-10-04T14:30:00Z,30.3085,-88.1395,2.412,20.85,1111122 
DISL,ioos:station:DISL:CATA:1,2013-10-04T15:00:00Z,30.3085,-88.1395,2.416,20.91,1111122 
DISL,ioos:station:DISL:CATA:1,2013-10-04T15:30:00Z,30.3085,-88.1395,2.434,21.03,1111122 
DISL,ioos:station:DISL:CATA:1,2013-10-04T16:00:00Z,30.3085,-88.1395,2.445,21.19,1111122 
DISL,ioos:station:DISL:CATA:1,2013-10-04T16:30:00Z,30.3085,-88.1395,2.457,21.15,1111122 
DISL,ioos:station:DISL:CATA:1,2013-10-04T17:00:00Z,30.3085,-88.1395,2.459,21.45,1111122 
DISL,ioos:station:DISL:CATA:1,2013-10-04T17:30:00Z,30.3085,-88.1395,2.466,21.28,1111122 
DISL,ioos:station:DISL:CATA:1,2013-10-04T18:00:00Z,30.3085,-88.1395,2.481,21.75,1111122 
DISL,ioos:station:DISL:CATA:1,2013-10-04T18:30:00Z,30.3085,-88.1395,2.494,21.74,1111122 
DISL,ioos:station:DISL:CATA:1,2013-10-04T19:00:00Z,30.3085,-88.1395,2.5,21.76,1111122 
DISL,ioos:station:DISL:CATA:1,2013-10-04T19:30:00Z,30.3085,-88.1395,2.506,21.39,1111122 
DISL,ioos:station:DISL:CATA:1,2013-10-04T20:00:00Z,30.3085,-88.1395,2.508,20.92,1111122 
DISL,ioos:station:DISL:CATA:1,2013-10-04T20:30:00Z,30.3085,-88.1395,2.513,21.17,1111122 
DISL,ioos:station:DISL:CATA:1,2013-10-04T21:00:00Z,30.3085,-88.1395,2.503,21.27,1111122 
DISL,ioos:station:DISL:CATA:1,2013-10-04T21:30:00Z,30.3085,-88.1395,2.5,21.53,1111122 
DISL,ioos:station:DISL:CATA:1,2013-10-04T22:00:00Z,30.3085,-88.1395,2.514,21.65,1111122 
DISL,ioos:station:DISL:CATA:1,2013-10-04T22:30:00Z,30.3085,-88.1395,2.521,21.9,1111122 
DISL,ioos:station:DISL:CATA:1,2013-10-04T23:00:00Z,30.3085,-88.1395,2.523,21.13,1111122 
DISL,ioos:station:DISL:CATA:1,2013-10-04T23:30:00Z,30.3085,-88.1395,2.524,21.48,1111122 
DISL,ioos:station:DISL:CATA:1,2013-10-05T00:00:00Z,30.3085,-88.1395,2.528,22.17,1111122 
DISL,ioos:station:DISL:CATA:1,2013-10-05T00:30:00Z,30.3085,-88.1395,2.522,21.59,1111122 
DISL,ioos:station:DISL:CATA:1,2013-10-05T01:00:00Z,30.3085,-88.1395,2.523,20.81,1111122 
DISL,ioos:station:DISL:CATA:1,2013-10-05T01:30:00Z,30.3085,-88.1395,2.521,21.15,1111122 
DISL,ioos:station:DISL:CATA:1,2013-10-05T02:00:00Z,30.3085,-88.1395,2.525,20.58,1111122 
DISL,ioos:station:DISL:CATA:1,2013-10-05T02:30:00Z,30.3085,-88.1395,2.52,19.88,1111122 
DISL,ioos:station:DISL:CATA:1,2013-10-05T03:00:00Z,30.3085,-88.1395,2.529,20.07,1111122 
DISL,ioos:station:DISL:CATA:1,2013-10-05T03:30:00Z,30.3085,-88.1395,2.533,20.14,1111122 
DISL,ioos:station:DISL:CATA:1,2013-10-05T04:00:00Z,30.3085,-88.1395,2.534,20.47,1111122 
DISL,ioos:station:DISL:CATA:1,2013-10-05T04:30:00Z,30.3085,-88.1395,2.535,20.58,1111122 
DISL,ioos:station:DISL:CATA:1,2013-10-05T05:00:00Z,30.3085,-88.1395,2.531,20.77,1111122 
DISL,ioos:station:DISL:CATA:1,2013-10-05T05:30:00Z,30.3085,-88.1395,2.52,21.39,1111122 
DISL,ioos:station:DISL:CATA:1,2013-10-05T06:00:00Z,30.3085,-88.1395,2.516,21.23,1111122 
DISL,ioos:station:DISL:CATA:1,2013-10-05T06:30:00Z,30.3085,-88.1395,2.498,21.51,1111122 
DISL,ioos:station:DISL:CATA:1,2013-10-05T07:00:00Z,30.3085,-88.1395,2.495,20.49,1111122 
DISL,ioos:station:DISL:CATA:1,2013-10-05T07:30:00Z,30.3085,-88.1395,2.478,20.24,1111122 
DISL,ioos:station:DISL:CATA:1,2013-10-05T08:00:00Z,30.3085,-88.1395,2.455,19.99,1111122 
DISL,ioos:station:DISL:CATA:1,2013-10-05T08:30:00Z,30.3085,-88.1395,2.428,19.89,1111122 
DISL,ioos:station:DISL:CATA:1,2013-10-05T09:00:00Z,30.3085,-88.1395,2.399,19.56,1111122 
DISL,ioos:station:DISL:CATA:1,2013-10-05T09:30:00Z,30.3085,-88.1395,2.379,19.27,1111122 
DISL,ioos:station:DISL:CATA:1,2013-10-05T10:00:00Z,30.3085,-88.1395,2.338,19.4,1111122 
DISL,ioos:station:DISL:CATA:1,2013-10-05T10:30:00Z,30.3085,-88.1395,2.324,19.72,1111122 
DISL,ioos:station:DISL:CATA:1,2013-10-05T11:00:00Z,30.3085,-88.1395,2.3,19.58,1111122 
DISL,ioos:station:DISL:CATA:1,2013-10-05T11:30:00Z,30.3085,-88.1395,2.293,19.69,1111122 
DISL,ioos:station:DISL:CATA:1,2013-10-05T12:00:00Z,30.3085,-88.1395,2.277,19.66,1111122 
DISL,ioos:station:DISL:CATA:1,2013-10-05T12:30:00Z,30.3085,-88.1395,2.276,19.38,1111122 
DISL,ioos:station:DISL:CATA:1,2013-10-05T13:00:00Z,30.3085,-88.1395,2.274,19.46,1111122 
DISL,ioos:station:DISL:CATA:1,2013-10-05T13:30:00Z,30.3085,-88.1395,2.279,19.44,1111122 
DISL,ioos:station:DISL:CATA:1,2013-10-05T14:00:00Z,30.3085,-88.1395,2.29,19.15,1111122 
DISL,ioos:station:DISL:CATA:1,2013-10-05T14:30:00Z,30.3085,-88.1395,2.305,19.71,1111122 
DISL,ioos:station:DISL:CATA:1,2013-10-05T15:00:00Z,30.3085,-88.1395,2.321,19.37,1111122 
DISL,ioos:station:DISL:CATA:1,2013-10-05T15:30:00Z,30.3085,-88.1395,2.337,19.77,1111122 
DISL,ioos:station:DISL:CATA:1,2013-10-05T16:00:00Z,30.3085,-88.1395,2.349,20.25,1111122 
DISL,ioos:station:DISL:CATA:1,2013-10-05T16:30:00Z,30.3085,-88.1395,2.364,19.84,1111122 
DISL,ioos:station:DISL:CATA:1,2013-10-05T17:00:00Z,30.3085,-88.1395,2.385,20.64,1111122 
DISL,ioos:station:DISL:CATA:1,2013-10-05T17:30:00Z,30.3085,-88.1395,2.397,20.54,1111122 
DISL,ioos:station:DISL:CATA:1,2013-10-05T18:00:00Z,30.3085,-88.1395,2.414,20.57,1111122 
DISL,ioos:station:DISL:CATA:1,2013-10-05T18:30:00Z,30.3085,-88.1395,2.43,20.51,1111122 
DISL,ioos:station:DISL:CATA:1,2013-10-05T19:00:00Z,30.3085,-88.1395,2.434,20.41,1111122 
DISL,ioos:station:DISL:CATA:1,2013-10-05T19:30:00Z,30.3085,-88.1395,2.433,20.33,1111122 
DISL,ioos:station:DISL:CATA:1,2013-10-05T20:00:00Z,30.3085,-88.1395,2.424,20.57,1111122 
DISL,ioos:station:DISL:CATA:1,2013-10-05T20:30:00Z,30.3085,-88.1395,2.423,20.7,1111122 
DISL,ioos:station:DISL:CATA:1,2013-10-05T21:00:00Z,30.3085,-88.1395,2.422,20.49,1111122 
DISL,ioos:station:DISL:CATA:1,2013-10-05T21:30:00Z,30.3085,-88.1395,2.46,20.67,1111122 
DISL,ioos:station:DISL:CATA:1,2013-10-05T22:00:00Z,30.3085,-88.1395,2.472,20.56,1111122 
DISL,ioos:station:DISL:CATA:1,2013-10-05T22:30:00Z,30.3085,-88.1395,2.478,20.28,1111122 
DISL,ioos:station:DISL:CATA:1,2013-10-05T23:00:00Z,30.3085,-88.1395,2.483,20.98,1111122 
DISL,ioos:station:DISL:CATA:1,2013-10-05T23:30:00Z,30.3085,-88.1395,2.504,21.42,1111122 
DISL,ioos:station:DISL:CATA:1,2013-10-06T00:00:00Z,30.3085,-88.1395,2.522,22.58,1111122 
DISL,ioos:station:DISL:CATA:1,2013-10-06T00:30:00Z,30.3085,-88.1395,2.552,21.52,1111122 
DISL,ioos:station:DISL:CATA:1,2013-10-06T01:00:00Z,30.3085,-88.1395,2.58,22.06,1111122 
DISL,ioos:station:DISL:CATA:1,2013-10-06T01:30:00Z,30.3085,-88.1395,2.593,22.38,1111122 
DISL,ioos:station:DISL:CATA:1,2013-10-06T02:00:00Z,30.3085,-88.1395,2.612,22.25,1111122 
DISL,ioos:station:DISL:CATA:1,2013-10-06T02:30:00Z,30.3085,-88.1395,2.633,21.5,1111122 
DISL,ioos:station:DISL:CATA:1,2013-10-06T03:00:00Z,30.3085,-88.1395,2.631,20.88,1111122 
DISL,ioos:station:DISL:CATA:1,2013-10-06T03:30:00Z,30.3085,-88.1395,2.645,20.81,1111122 
DISL,ioos:station:DISL:CATA:1,2013-10-06T04:00:00Z,30.3085,-88.1395,2.653,21.3,1111122 
DISL,ioos:station:DISL:CATA:1,2013-10-06T04:30:00Z,30.3085,-88.1395,2.664,20.91,1111122 
DISL,ioos:station:DISL:CATA:1,2013-10-06T05:00:00Z,30.3085,-88.1395,2.662,21.45,1111122 
DISL,ioos:station:DISL:CATA:1,2013-10-06T05:30:00Z,30.3085,-88.1395,2.674,20.92,1111122 
DISL,ioos:station:DISL:CATA:1,2013-10-06T06:00:00Z,30.3085,-88.1395,2.653,21.08,1111122 
DISL,ioos:station:DISL:CATA:1,2013-10-06T06:30:00Z,30.3085,-88.1395,2.643,21.64,1111122 
DISL,ioos:station:DISL:CATA:1,2013-10-06T07:00:00Z,30.3085,-88.1395,2.623,21.97,1111122 
DISL,ioos:station:DISL:CATA:1,2013-10-06T07:30:00Z,30.3085,-88.1395,2.606,22.57,1111122 
DISL,ioos:station:DISL:CATA:1,2013-10-06T08:00:00Z,30.3085,-88.1395,2.581,22.4,1111122 
DISL,ioos:station:DISL:CATA:1,2013-10-06T08:30:00Z,30.3085,-88.1395,2.56,22.82,1111122 
DISL,ioos:station:DISL:CATA:1,2013-10-06T09:00:00Z,30.3085,-88.1395,2.521,21.69,1111122 
DISL,ioos:station:DISL:CATA:1,2013-10-06T09:30:00Z,30.3085,-88.1395,2.501,21.43,1111122 
DISL,ioos:station:DISL:CATA:1,2013-10-06T10:00:00Z,30.3085,-88.1395,2.472,21.56,1111122 
DISL,ioos:station:DISL:CATA:1,2013-10-06T10:30:00Z,30.3085,-88.1395,2.44,20.57,1111122 
DISL,ioos:station:DISL:CATA:1,2013-10-06T11:00:00Z,30.3085,-88.1395,2.422,21.18,1111122 
DISL,ioos:station:DISL:CATA:1,2013-10-06T11:30:00Z,30.3085,-88.1395,2.376,21.27,1111122 
DISL,ioos:station:DISL:CATA:1,2013-10-06T12:00:00Z,30.3085,-88.1395,2.383,21.33,1111122 
DISL,ioos:station:DISL:CATA:1,2013-10-06T12:30:00Z,30.3085,-88.1395,2.304,21.3,1111122 
DISL,ioos:station:DISL:CATA:1,2013-10-06T13:00:00Z,30.3085,-88.1395,2.307,21.52,1111122 
DISL,ioos:station:DISL:CATA:1,2013-10-06T13:30:00Z,30.3085,-88.1395,2.361,20.84,1111122 
DISL,ioos:station:DISL:CATA:1,2013-10-06T14:00:00Z,30.3085,-88.1395,2.344,21.25,1111122 